Regional Weather Roundup
Issued by NWS Glasgow, MT

Home | Current Version | Previous Version | Text Only | Print | Product List | Glossary On
Versions: 1 2 3 4 5 6 7 8 9 10 11 12 13 14 15 16 17 18 19 20 21 22 23 24 25 26 27
000
ASUS45 KGGW 220315
RWRGGW
HOURLY REGIONAL WEATHER ROUNDUP FOR NORTHEAST MONTANA
NATIONAL WEATHER SERVICE GLASGOW MONTANA
800 PM MST WED FEB 21 2018

NOTE: "FAIR" INDICATES FEW OR NO CLOUDS BELOW 12,000 FEET WITH NO
SIGNIFICANT WEATHER AND/OR OBSTRUCTIONS TO VISISBILITY.

NORTHEAST MONTANA


CITY           SKY/WX    TMP DP  RH WIND       PRES   REMARKS
GLASGOW        FAIR      -8 -12  83 E12       30.16F WCI -27
PLENTYWOOD       N/A      3  -2  79 SE8         N/A
WOLF POINT     FAIR     -11 -16  78 CALM      30.23S
JORDAN           N/A     -6 -13  71 CALM      30.13F
SIDNEY         FAIR      -3 -10  72 CALM      30.25S
GLENDIVE       FAIR       0  -9  65 S7        30.20S
MALTA            N/A    -14 -17  87 E2          N/A
SCOBEY           N/A     -4 -13  65 CALM      30.13S

FORT PECK REPORTS


CITY           SKY/WX    TMP DP  RH WIND       PRES   REMARKS
FORT PECK        N/A     -2  -7  79 SE9         N/A
THE PINES        N/A     -2  -7  79 S3          N/A

SOUTHEAST MONTANA


CITY           SKY/WX    TMP DP  RH WIND       PRES   REMARKS
BILLINGS       MOCLDY    15  -2  46 SW16      30.06S WCI  -1
MILES CITY     FAIR     -12 -16  82 NW6       30.16S
BAKER          FAIR      -2  -8  76 SE16      30.17F WCI -23
LIVINGSTON     CLOUDY    19   9  65 SW6       29.97S

CENTRAL MONTANA


CITY           SKY/WX    TMP DP  RH WIND       PRES   REMARKS
HAVRE          FAIR     -11 -16  78 E7        30.08S
LEWISTOWN      FAIR       8  -2  63 SW18      29.98S WCI -11
GREAT FALLS    FAIR       6  -5  60 SW10      29.98S WCI  -9
CUT BANK       FAIR       8  -2  63 SW18      29.94R WCI -11
HELENA         FAIR       7   0  73 CALM      30.04R
BUTTE          FAIR      -2  -7  79 S5        29.95R
BOZEMAN        FAIR       4  -4  69 S6        30.01S

WESTERN MONTANA


CITY           SKY/WX    TMP DP  RH WIND       PRES   REMARKS
MISSOULA       FAIR      12   5  73 CALM      30.08F
KALISPELL      NOT AVBL

NORTH DAKOTA


CITY           SKY/WX    TMP DP  RH WIND       PRES   REMARKS
WILLISTON      FAIR       7  -4  60 S7        30.25F
DICKINSON      FAIR       2  -8  63 S14       30.21F WCI -16
MINOT          FAIR       5  -2  72 S8        30.32F
BISMARCK       FAIR       3  -3  76 SE3       30.39S

SOUTHERN SASKATCHEWAN


CITY           SKY/WX    TMP DP  RH WIND       PRES   REMARKS
REGINA         NOT AVBL
ESTEVAN        NOT AVBL
SWIFT CURRENT  NOT AVBL





USA.gov is the U.S. government's official web portal to all federal, state and local government web resources and services.